[[{"header":{"parameterUnit":"m.s-1","parameterCategory":1,"la1":30.2991,"la2":30.254,"lo1":-89.0895,"lo2":-89.0444,"dy":0.0017,"dx":0.0017,"nx":28,"ny":28,"refTime":"2025-07-30T03:00:00:Z","depth":0,"parameterNumber":2,"parameterNumberName":"U-component_of_WINDS"},"data":[0,0,0,0,0,0,0,0,0,0,0,0,0,0,0,0,0,0,0,0,0,0,0,0,0,0,0,0,0,0,0,0,0,0,0,0,0,0,0,0,0,0,0,0,0,0,0,0,0,0,0,0,0,0,0,0,0,0,2.1328,2.1328,0,2.1351,2.1351,2.1351,2.1315,2.1314,2.1313,2.1311,2.1333,2.1335,2.1337,0,0,0,0,0,0,0,0,0,0,0,0,0,2.1252,2.1254,2.1328,2.1328,2.1328,2.1351,2.1351,2.1351,2.1315,2.1314,2.1312,2.1311,2.1333,2.1335,2.1337,0,0,0,0,0,0,0,0,0,0,0,0,0,2.1281,2.1254,2.1328,2.1313,2.1312,2.1351,2.1351,2.1351,2.1316,2.1314,2.1312,2.131,2.1332,2.1335,2.1337,2.1391,0,0,2.1345,2.1346,0,0,0,0,0,0,0,0,2.1279,2.1284,2.1315,2.1314,2.1313,2.1328,2.1332,2.1364,2.1316,2.1314,2.1311,2.1309,2.1333,2.1336,2.1344,2.1392,2.1393,2.1346,2.1347,2.1348,2.1349,0,0,0,0,0,0,0,2.1277,2.1283,2.1337,2.1315,2.1314,2.1305,2.1307,2.1338,2.1334,2.1314,2.1312,2.1315,2.1332,2.1341,2.1344,2.1393,2.1345,2.1348,2.1349,2.135,2.1486,2.1488,0,0,0,0,0,0,2.1277,2.1281,2.1336,2.1337,2.1291,2.1308,2.131,2.1325,2.1333,2.1333,2.1316,2.1313,2.1338,2.1341,2.1345,2.1408,2.1348,2.1351,2.1352,2.1484,2.1487,2.1489,0,0,0,0,0,0,2.1276,2.1283,2.1335,2.1309,2.1315,2.1311,2.1328,2.1327,2.1336,2.1335,2.1334,2.1327,2.1337,2.1341,2.138,2.1408,2.1352,2.1354,2.1482,2.1485,2.1488,2.1534,0,0,0,0,0,0,2.1274,2.1282,2.1303,2.1309,2.1316,2.137,2.133,2.1328,2.134,2.1336,2.1344,2.1344,2.1335,2.1376,2.1382,2.1411,2.1356,2.1479,2.1483,2.1487,2.153,2.1539,2.1546,0,0,0,0,0,2.1271,2.1315,2.1304,2.1311,2.1342,2.1372,2.1376,2.1365,2.1343,2.1363,2.1363,2.1344,2.1404,2.138,2.1387,2.1417,2.1477,2.1482,2.1486,2.1527,2.1537,2.1546,0,0,0,0,0,0,2.1311,2.1315,2.1303,2.135,2.1361,2.1366,2.1391,2.1376,2.1393,2.1389,2.1375,2.1377,2.1418,2.1421,2.1395,2.1469,2.1437,2.1443,2.1465,2.1475,2.1483,2.1481,2.1358,0,0,0,0,0,2.1325,2.135,2.1352,2.1393,2.1399,2.1394,2.1407,2.1398,2.1409,2.1413,2.1415,2.1426,2.1447,2.1461,2.1481,2.1531,2.1532,2.1554,2.1562,2.1569,2.1574,2.1601,2.1611,2.1504,2.1504,2.1504,0,0,2.1354,2.136,2.1376,2.1401,2.1408,2.1434,2.1398,2.1426,2.1445,2.1417,2.1454,2.1456,2.1467,2.1511,2.1531,2.1515,2.1604,2.1574,2.158,2.1581,2.1606,2.1616,2.1625,2.1507,2.1506,2.1506,0,0,2.1421,2.1428,2.1463,2.1471,2.1483,2.148,2.1488,2.1495,2.1496,2.1533,2.1512,2.1534,2.1571,2.1579,2.1589,2.1659,2.1642,2.1666,2.1706,2.1733,2.1741,2.1748,2.1773,2.1782,2.1672,2.1672,2.1672,0,2.1456,2.1494,2.1483,2.1513,2.1524,2.1501,2.1536,2.1544,2.1562,2.157,2.1552,2.1598,2.1604,2.165,2.1667,2.1676,2.1685,2.1665,2.1741,2.1748,2.1755,2.1778,2.1788,2.1674,2.1674,2.1674,2.1674,0,2.1536,2.1563,2.159,2.1608,2.1622,2.1655,2.1648,2.1664,2.1655,2.1653,2.1691,2.1697,2.1717,2.1728,2.1718,2.1773,2.1763,2.1743,2.1711,2.1768,2.179,2.1799,2.1679,2.1678,2.1677,2.1676,0,0,2.1628,2.164,2.165,2.1658,2.1669,2.1689,2.1721,2.1741,2.1755,2.1768,2.1794,2.1826,2.1808,2.1819,2.181,2.1833,2.1889,2.1811,2.1811,2.1825,2.1949,2.1963,2.1974,2.1878,2.1879,2.1881,2.1948,0,2.1694,2.1748,2.174,2.1792,2.1816,2.1795,2.1822,2.1832,2.1832,2.1852,2.1851,2.1874,2.1849,2.1855,2.1877,2.1877,2.1913,2.1872,2.1901,2.1902,2.1898,2.1985,2.2,2.2064,2.1956,2.1958,2.1959,0,2.1778,2.1795,2.185,2.1858,2.1868,2.1893,2.1911,2.1931,2.1942,2.194,2.1952,2.1939,2.197,2.1938,2.198,2.1953,2.1964,2.1966,2.1968,2.197,2.1934,2.1989,2.2083,2.2093,2.1972,2.1971,2.197,0,2.1839,2.1875,2.1913,2.192,2.1931,2.1949,2.1954,2.1963,2.1976,2.1992,2.2,2.2019,2.203,2.2045,2.2037,2.2015,2.2081,2.2048,2.208,2.208,2.2094,2.2093,2.2192,2.2103,2.2103,2.2102,2.2102,0,2.1913,2.1948,2.194,2.1964,2.2002,2.1991,2.2029,2.2032,2.204,2.2063,2.2046,2.2067,2.2057,2.2078,2.2072,2.2108,2.2113,2.2112,2.211,2.2113,2.2113,2.212,2.2115,2.2105,2.2104,2.2104,2.2104,0,2.1987,2.1984,2.2023,2.203,2.2033,2.2061,2.2066,2.2088,2.2087,2.2116,2.2122,2.212,2.2144,2.2138,2.2164,2.2161,2.2206,2.2198,2.2202,2.22,2.2232,2.2229,2.2337,2.2351,2.2254,2.2255,2.2256,0,2.2035,2.2061,2.2071,2.2085,2.2092,2.2116,2.2129,2.212,2.2134,2.2149,2.2169,2.2191,2.2209,2.2248,2.2248,2.2268,2.2261,2.2298,2.2264,2.2266,2.2261,2.2259,2.2262,2.2304,2.2305,2.2306,2.2307,0,2.212,2.2117,2.2137,2.2157,2.2173,2.2188,2.2201,2.2214,2.2206,2.2223,2.2248,2.2262,2.2289,2.2311,2.233,2.2334,2.2319,2.2318,2.2326,2.2329,2.233,2.233,2.222,2.2315,2.2314,2.2314,2.2313,2.2313,2.2181,2.2204,2.2214,2.2237,2.2247,2.226,2.228,2.2282,2.2302,2.2324,2.2317,2.2345,2.2355,2.2379,2.2386,2.2407,2.2393,2.2405,2.2408,2.2411,2.2415,2.2328,2.2411,2.241,2.241,2.241,2.241,0,2.2265,2.2271,2.2292,2.2312,2.233,2.2315,2.2329,2.2345,2.237,2.2381,2.2399,2.2427,2.2449,2.2451,2.2472,2.2489,2.2482,2.2494,2.2492,2.2494,2.2427,2.2417,2.2499,2.2499,2.2499,2.2499,2.2499,2.2499,2.231,2.2347,2.2346,2.2387,2.2392,2.242,2.2429,2.2441,2.245,2.2482,2.2501,2.2502,2.251,2.2531,2.255,2.255,2.2558,2.2573,2.257,2.2507,2.2499,2.249,2.2481,2.2575,2.2575,2.2636,2.2636,2.2637]},{"header":{"parameterUnit":"m.s-1","parameterCategory":1,"la1":30.2991,"la2":30.254,"lo1":-89.0895,"lo2":-89.0444,"dy":0.0017,"dx":0.0017,"nx":28,"ny":28,"refTime":"2025-07-30T03:00:00:Z","depth":0,"parameterNumber":3,"parameterNumberName":"V-component_of_WINDS"},"data":[0,0,0,0,0,0,0,0,0,0,0,0,0,0,0,0,0,0,0,0,0,0,0,0,0,0,0,0,0,0,0,0,0,0,0,0,0,0,0,0,0,0,0,0,0,0,0,0,0,0,0,0,0,0,0,0,0,0,-1.3649,-1.3649,0,-1.3677,-1.3677,-1.3678,-1.3672,-1.3672,-1.3671,-1.3671,-1.3699,-1.3701,-1.3702,0,0,0,0,0,0,0,0,0,0,0,0,0,-1.3589,-1.359,-1.3649,-1.3649,-1.3649,-1.3677,-1.3678,-1.3678,-1.3672,-1.3672,-1.3671,-1.367,-1.3699,-1.37,-1.3702,0,0,0,0,0,0,0,0,0,0,0,0,0,-1.3616,-1.3591,-1.3649,-1.365,-1.365,-1.3677,-1.3678,-1.3678,-1.3672,-1.3672,-1.3671,-1.367,-1.3698,-1.37,-1.3702,-1.3729,0,0,-1.3708,-1.3709,0,0,0,0,0,0,0,0,-1.3615,-1.3618,-1.3649,-1.365,-1.365,-1.367,-1.3667,-1.3695,-1.3672,-1.3664,-1.3671,-1.367,-1.369,-1.3693,-1.37,-1.3731,-1.3732,-1.3708,-1.3709,-1.371,-1.3711,0,0,0,0,0,0,0,-1.3613,-1.3617,-1.366,-1.365,-1.365,-1.3649,-1.3652,-1.3672,-1.3681,-1.3665,-1.3664,-1.3668,-1.369,-1.3698,-1.37,-1.3732,-1.3708,-1.371,-1.3711,-1.3712,-1.3787,-1.3788,0,0,0,0,0,0,-1.361,-1.3615,-1.3659,-1.3661,-1.363,-1.3651,-1.3654,-1.3665,-1.3681,-1.3683,-1.3668,-1.3667,-1.3695,-1.3698,-1.3701,-1.3734,-1.371,-1.3712,-1.3713,-1.3786,-1.3787,-1.3788,0,0,0,0,0,0,-1.3609,-1.3614,-1.3658,-1.3638,-1.3643,-1.3653,-1.3665,-1.3666,-1.3673,-1.3684,-1.3685,-1.3675,-1.3695,-1.3699,-1.3723,-1.3735,-1.3713,-1.3714,-1.3785,-1.3787,-1.3788,-1.38,0,0,0,0,0,0,-1.3607,-1.3614,-1.3624,-1.3638,-1.3645,-1.3678,-1.3665,-1.3667,-1.3677,-1.3675,-1.369,-1.3692,-1.3694,-1.372,-1.3724,-1.3737,-1.3716,-1.3784,-1.3786,-1.3787,-1.3799,-1.3802,-1.3804,0,0,0,0,0,-1.3605,-1.3627,-1.3625,-1.363,-1.3658,-1.3679,-1.3683,-1.3686,-1.3678,-1.3688,-1.3695,-1.3691,-1.3733,-1.3722,-1.3727,-1.3741,-1.3783,-1.3785,-1.3787,-1.3797,-1.3801,-1.3804,0,0,0,0,0,0,-1.3614,-1.3628,-1.3627,-1.3653,-1.3665,-1.3678,-1.3691,-1.369,-1.3704,-1.3702,-1.3705,-1.3709,-1.3733,-1.3739,-1.3727,-1.3768,-1.3757,-1.376,-1.3763,-1.3767,-1.3769,-1.3767,-1.3717,0,0,0,0,0,-1.3619,-1.3635,-1.3647,-1.3669,-1.3675,-1.3682,-1.3692,-1.3693,-1.3705,-1.371,-1.3719,-1.3731,-1.3747,-1.3757,-1.3772,-1.38,-1.3803,-1.3812,-1.3815,-1.3817,-1.3819,-1.3834,-1.3838,-1.3795,-1.3795,-1.3795,0,0,-1.3629,-1.3639,-1.3649,-1.3671,-1.368,-1.3697,-1.3686,-1.3705,-1.3717,-1.3713,-1.3736,-1.3743,-1.3756,-1.3782,-1.3794,-1.3788,-1.3832,-1.382,-1.3821,-1.3823,-1.3837,-1.3841,-1.3845,-1.3796,-1.3796,-1.3796,0,0,-1.3656,-1.3665,-1.3685,-1.3694,-1.3709,-1.3713,-1.3718,-1.3732,-1.3736,-1.3759,-1.3757,-1.3772,-1.3799,-1.3809,-1.3817,-1.3849,-1.3846,-1.3854,-1.3868,-1.3883,-1.3886,-1.3889,-1.39,-1.3904,-1.3856,-1.3856,-1.3856,0,-1.3667,-1.3692,-1.3695,-1.3713,-1.3723,-1.3721,-1.374,-1.3749,-1.3768,-1.3775,-1.3769,-1.3803,-1.3812,-1.384,-1.3848,-1.3855,-1.386,-1.3852,-1.3886,-1.3889,-1.3892,-1.3902,-1.3906,-1.3857,-1.3857,-1.3857,-1.3857,0,-1.3704,-1.3722,-1.3736,-1.3754,-1.3765,-1.3784,-1.379,-1.3801,-1.3802,-1.3807,-1.3831,-1.3842,-1.3859,-1.3866,-1.3867,-1.3894,-1.389,-1.3885,-1.3873,-1.3897,-1.3906,-1.391,-1.3858,-1.3858,-1.3858,-1.3858,0,0,-1.3737,-1.3756,-1.3762,-1.377,-1.3786,-1.3799,-1.3818,-1.3835,-1.3845,-1.3858,-1.3874,-1.3897,-1.3892,-1.3902,-1.3904,-1.3917,-1.3941,-1.391,-1.391,-1.3915,-1.3971,-1.3975,-1.3979,-1.3939,-1.394,-1.3941,-1.397,0,-1.3765,-1.3798,-1.3802,-1.3831,-1.3847,-1.3846,-1.3862,-1.3874,-1.3879,-1.3894,-1.39,-1.3917,-1.3909,-1.3915,-1.3928,-1.3935,-1.3952,-1.3933,-1.3954,-1.3954,-1.395,-1.3985,-1.3988,-1.4016,-1.3974,-1.3975,-1.3975,0,-1.3802,-1.3816,-1.3847,-1.3861,-1.3868,-1.3883,-1.3899,-1.3913,-1.3926,-1.3929,-1.394,-1.3941,-1.396,-1.3949,-1.3976,-1.3963,-1.3972,-1.3976,-1.3978,-1.3979,-1.3966,-1.3987,-1.4024,-1.4028,-1.3981,-1.3981,-1.398,0,-1.3822,-1.3849,-1.3871,-1.3878,-1.3895,-1.3905,-1.3913,-1.3925,-1.3935,-1.395,-1.3956,-1.3973,-1.3981,-1.3994,-1.3999,-1.399,-1.4025,-1.4014,-1.4029,-1.4028,-1.4035,-1.4035,-1.4075,-1.4042,-1.4042,-1.4042,-1.4042,0,-1.3853,-1.3872,-1.388,-1.3894,-1.3915,-1.3919,-1.394,-1.3947,-1.3959,-1.3974,-1.3973,-1.3987,-1.3993,-1.4008,-1.4012,-1.4034,-1.4038,-1.4041,-1.4042,-1.4041,-1.404,-1.4046,-1.4044,-1.4043,-1.4043,-1.4043,-1.4042,0,-1.3878,-1.3885,-1.3909,-1.3923,-1.3927,-1.3942,-1.3954,-1.3967,-1.3973,-1.3992,-1.3996,-1.4006,-1.4023,-1.4029,-1.4051,-1.4054,-1.4079,-1.4078,-1.4074,-1.4074,-1.4088,-1.4086,-1.4132,-1.4138,-1.4102,-1.4103,-1.4103,0,-1.3897,-1.3912,-1.3927,-1.3937,-1.3945,-1.3961,-1.3972,-1.3977,-1.3988,-1.4004,-1.4015,-1.4033,-1.4047,-1.4075,-1.4084,-1.41,-1.41,-1.4115,-1.4102,-1.4101,-1.41,-1.4098,-1.41,-1.4117,-1.4117,-1.4118,-1.4118,0,-1.393,-1.3933,-1.3948,-1.3964,-1.3976,-1.3989,-1.4002,-1.401,-1.4017,-1.4029,-1.4047,-1.4058,-1.408,-1.4098,-1.4115,-1.4122,-1.4121,-1.4122,-1.4126,-1.4125,-1.4122,-1.4123,-1.408,-1.4121,-1.412,-1.412,-1.412,-1.412,-1.3953,-1.3966,-1.3979,-1.3995,-1.4005,-1.4017,-1.403,-1.4038,-1.4053,-1.4071,-1.4073,-1.4093,-1.4106,-1.4128,-1.4137,-1.4152,-1.4148,-1.4154,-1.4156,-1.4157,-1.4158,-1.412,-1.4155,-1.4155,-1.4155,-1.4155,-1.4155,0,-1.3985,-1.3993,-1.4009,-1.4026,-1.404,-1.4038,-1.4052,-1.4063,-1.408,-1.4092,-1.4106,-1.4127,-1.4144,-1.4154,-1.4171,-1.4182,-1.4182,-1.4186,-1.4185,-1.4187,-1.4161,-1.4155,-1.4186,-1.4186,-1.4186,-1.4186,-1.4186,-1.4186,-1.4004,-1.4025,-1.4029,-1.4056,-1.4064,-1.4083,-1.4091,-1.4102,-1.4112,-1.4135,-1.4149,-1.4156,-1.4168,-1.4186,-1.4201,-1.4204,-1.421,-1.4215,-1.4217,-1.4192,-1.4189,-1.4186,-1.4181,-1.4216,-1.4216,-1.4242,-1.4242,-1.4242]}]]